1279756833106,16.9236
1279756893106,16.9089
1279756953106,16.8865
1279757013106,16.9305
1279757073106,16.8859
1279757133106,16.8432
1279757193106,16.8856
1279757253106,16.9238
1279757313106,16.9412
1279757373106,16.8677
1279757433106,16.9127
1279757493106,16.9161
1279757553106,16.9202
1279757613106,16.9127
1279757673106,16.8833
1279757733106,16.8993
1279757793106,16.9164
1279757853106,16.9364
1279757913106,16.9570
1279757973106,16.8623
1279758033106,16.8589
1279758093106,16.8679
1279758153106,16.9206
1279758213106,16.9856
1279758273106,17.0169
1279758333106,16.9833
1279758393106,16.9493
1279758453106,16.9853
1279758513106,17.0146
1279758573106,17.0514
1279758633106,16.9601
1279758693106,16.9634
1279758753106,16.9453
1279758813106,16.9413
1279758873106,16.9223
1279758933106,16.9791
1279758993106,16.9615
1279759053106,16.9911
1279759113106,17.0036
1279759173106,16.9951
1279759233106,16.9876
1279759293106,16.9425
1279759353106,16.9464
1279759413106,16.9804
1279759473106,17.0186
1279759533106,16.9103
1279759593106,16.9638
1279759653106,16.9901
1279759713106,17.0229
1279759773106,16.9736
1279759833106,16.9557
1279759893106,16.9925
1279759953106,17.0316
1279760013106,16.9496
1279760073106,16.9908
1279760133106,16.9497
1279760193106,16.9651
1279760253106,16.9762
1279760313106,16.9173
1279760373106,16.9292
1279760433115,16.9178
1279760493115,16.9441
1279760553115,16.9234
1279760613115,16.8506
1279760673115,17.0153
1279760733115,16.9726
1279760793115,16.9812
1279760853115,16.9529
1279760913115,16.9305
1279760973115,16.9152
1279761033115,16.9337
1279761093115,16.9218
1279761153115,16.9904
1279761213115,16.8951
1279761273115,16.9218
1279761333115,16.9592
1279761393115,16.8869
1279761453115,16.9228
1279761513115,16.8767
1279761573115,16.8603
1279761633115,16.9190
1279761693115,16.8546
1279761753115,16.8739
1279761813115,16.8663
1279761873115,16.8703
1279761933115,16.8864
1279761993115,16.9169
1279762053115,16.8591
1279762113115,16.8865
1279762173115,16.8502
1279762233115,16.9229
1279762293115,16.8469
1279762353115,16.8690
1279762413115,16.8711
1279762473115,16.9333
1279762533115,16.9112
1279762593115,16.9112
1279762653115,16.9537
1279762713115,16.9827
1279762773115,17.0068
1279762833115,17.0013
1279762893115,16.9752
1279762953115,16.9303
1279763013115,16.9152
1279763073115,16.8624
1279763133115,16.9254
1279763193115,16.8599
1279763253115,16.8811
1279763313115,16.8668
1279763373115,16.8784
1279763433115,16.8481
1279763493115,16.8541
1279763553115,16.8229
1279763613115,16.9012
1279763673115,16.9090
1279763733115,16.9276
1279763793115,16.8988
1279763853115,16.8790
1279763913115,16.9278
1279763973115,16.8729
1279764033124,16.9071
1279764093124,16.9460
1279764153124,16.9150
1279764213124,16.8833
1279764273124,16.8587
1279764333124,16.8711
1279764393124,16.8401
1279764453124,16.8945
1279764513124,16.9487
1279764573124,16.9087
1279764633124,16.9057
1279764693124,16.9613
1279764753124,16.8984
1279764813124,16.9739
1279764873124,16.9843
1279764933124,16.9098
1279764993124,16.9714
1279765053124,16.9476
1279765113124,16.8292
1279765173124,16.8429
1279765233124,16.8644
1279765293124,16.8795
1279765353124,16.9194
1279765413124,16.8941
1279765473124,16.8509
1279765533124,16.9349
1279765593124,16.8995
1279765653124,16.8962
1279765713124,16.9175
1279765773124,16.9156
1279765833124,16.9681
1279765893124,16.9506
1279765953124,16.9601
1279766013124,16.9743
1279766073124,16.8925
1279766133124,16.8827
1279766193124,16.9409
1279766253124,16.8635
1279766313124,16.8502
1279766373124,16.8793
1279766433124,16.8932
1279766493124,16.8841
1279766553124,16.8294
1279766613124,16.8356
1279766673124,16.8665
1279766733124,16.8392
1279766793124,16.9194
1279766853124,16.8832
1279766913124,16.8558
1279766973124,16.8687
1279767033124,16.8689
1279767093124,16.8663
1279767153124,16.8157
1279767213124,16.8652
1279767273124,16.8669
1279767333124,16.8116
1279767393124,16.8037
1279767453124,16.8480
1279767513124,16.8435
1279767573124,16.8607
1279767633133,16.8797
1279767693133,16.8970
1279767753133,16.9261
1279767813133,16.9245
1279767873133,16.8911
1279767933133,16.8387
1279767993133,16.9094
1279768053133,16.9041
1279768113133,16.9157
1279768173133,16.8389
1279768233133,16.8600
1279768293133,16.8791
1279768353133,16.9090
1279768413133,16.8854
1279768473133,16.8779
1279768533133,16.8633
1279768593133,16.8871
1279768653133,16.8342
1279768713133,16.8637
1279768773133,16.8360
1279768833133,16.9045
1279768893133,16.8867
1279768953133,16.8904
1279769013133,16.8244
1279769073133,16.8475
1279769133133,16.8398
1279769193133,16.8679
1279769253133,16.8765
1279769313133,16.8875
1279769373133,16.8874
1279769433133,16.8388
1279769493133,16.8620
1279769553133,16.8905
1279769613133,16.8697
1279769673133,16.8917
1279769733133,16.8474
1279769793133,16.8442
1279769853133,16.8270
1279769913133,16.8348
1279769973133,16.8718
1279770033133,16.8813
1279770093133,16.7792
1279770153133,16.9191
1279770213133,16.8954
1279770273133,16.8975
1279770333133,16.9367
1279770393133,16.8795
1279770453133,16.8939
1279770513133,16.8877
1279770573133,16.8503
1279770633133,16.8700
1279770693133,16.8572
1279770753133,16.9228
1279770813133,16.9247
1279770873133,16.9249
1279770933133,16.9631
1279770993133,16.9398
1279771053133,16.8827
1279771113133,16.8604
1279771173133,16.8729
1279771233141,16.9331
1279771293141,16.8803
1279771353141,16.8677
1279771413141,16.8562
1279771473141,16.9005
1279771533141,16.8619
1279771593141,16.8926
1279771653141,16.9145
1279771713141,16.8624
1279771773141,16.8371
1279771833141,16.8870
1279771893141,16.8635
1279771953141,16.8772
1279772013141,16.8636
1279772073141,16.9606
1279772133141,16.9487
1279772193141,16.8936
1279772253141,16.9538
1279772313141,16.8956
1279772373141,16.9714
1279772433141,16.9261
1279772493141,16.8700
1279772553141,16.9438
1279772613141,16.8903
1279772673141,16.9510
1279772733141,16.9324
1279772793141,16.9523
1279772853141,16.9591
1279772913141,16.9031
1279772973141,16.9558
1279773033141,16.9100
1279773093141,16.8650
1279773153141,16.9277
1279773213141,16.8625
1279773273141,16.8780
1279773333141,16.9458
1279773393141,16.8675
1279773453141,16.8682
1279773513141,16.8585
1279773573141,16.7880
1279773633141,16.8705
1279773693141,16.8513
1279773753141,16.8501
1279773813141,16.9159
1279773873141,16.8542
1279773933141,16.8713
1279773993141,16.8747
1279774053141,16.8873
1279774113141,16.9010
1279774173141,16.9112
1279774233141,16.9339
1279774293141,16.8525
1279774353141,16.8401
1279774413141,16.8358
1279774473141,16.7834
1279774533141,16.8091
1279774593141,16.8246
1279774653141,16.8236
1279774713141,16.7977
1279774773141,16.8524
1279774833150,16.8034
1279774893150,16.8307
1279774953150,16.8552
1279775013150,16.8543
1279775073150,16.8638
1279775133150,16.8794
1279775193150,16.8599
1279775253150,16.8501
1279775313150,16.8841
1279775373150,16.8608
1279775433150,16.9158
1279775493150,16.9202
1279775553150,16.8892
1279775613150,16.8275
1279775673150,16.8369
1279775733150,16.8423
1279775793150,16.8655
1279775853150,16.8606
1279775913150,16.9110
1279775973150,16.8657
1279776033150,16.8360
1279776093150,16.8376
1279776153150,16.8913
1279776213150,16.9082
1279776273150,16.8572
1279776333150,16.9005
1279776393150,16.8578
1279776453150,16.8304
1279776513150,16.9046
1279776573150,16.8979
1279776633150,16.9377
1279776693150,16.9448
1279776753150,16.8756
1279776813150,16.8875
1279776873150,16.8845
1279776933150,16.8571
1279776993150,16.9107
1279777053150,16.8416
1279777113150,16.9519
1279777173150,16.8817
1279777233150,16.9303
1279777293150,16.9384
1279777353150,16.9213
1279777413150,16.9463
1279777473150,16.9459
1279777533150,16.8986
1279777593150,16.9272
1279777653150,16.9286
1279777713150,16.9065
1279777773150,16.8845
1279777833150,16.8569
1279777893150,16.8741
1279777953150,16.8271
1279778013150,16.8384
1279778073150,16.8899
1279778133150,16.8600
1279778193150,16.8438
1279778253150,16.8912
1279778313150,16.8799
1279778373150,16.8431
1279778433158,16.8779
1279778493158,16.8436
1279778553158,16.8684
1279778613158,16.8810
1279778673158,16.8994
1279778733158,16.9147
1279778793158,16.9355
1279778853158,16.8881
1279778913158,16.9241
1279778973158,16.9916
1279779033158,16.9396
1279779093158,16.9096
1279779153158,16.9378
1279779213158,16.9161
1279779273158,16.9070
1279779333158,16.9793
1279779393158,16.9449
1279779453158,16.9888
1279779513158,16.9776
1279779573158,16.9630
1279779633158,16.9787
1279779693158,16.9427
1279779753158,16.9782
1279779813158,16.9186
1279779873158,16.9112
1279779933158,16.9177
1279779993158,16.9199
1279780053158,16.9449
1279780113158,16.9300
1279780173158,16.9556
1279780233158,16.9621
1279780293158,17.0544
1279780353158,16.9590
1279780413158,17.0119
1279780473158,16.9172
1279780533158,16.9563
1279780593158,16.9932
1279780653158,17.0074
1279780713158,16.9390
1279780773158,16.9486
1279780833158,16.9107
1279780893158,16.8879
1279780953158,16.9071
1279781013158,16.9075
1279781073158,16.8565
1279781133158,16.8958
1279781193158,16.8624
1279781253158,16.8694
1279781313158,16.8754
1279781373158,16.8784
1279781433158,16.9113
1279781493158,16.9185
1279781553158,16.9047
1279781613158,16.9025
1279781673158,16.8402
1279781733158,16.8364
1279781793158,16.9199
1279781853158,16.8369
1279781913158,16.9714
1279781973158,16.8914
1279782033167,16.8836
1279782093167,16.9040
1279782153167,16.8705
1279782213167,16.8945
1279782273167,16.8819
1279782333167,16.8712
1279782393167,16.9143
1279782453167,16.8382
1279782513167,16.8627
1279782573167,16.8235
1279782633167,16.8647
1279782693167,16.8464
1279782753167,16.8698
1279782813167,16.8650
1279782873167,16.8485
1279782933167,16.8947
1279782993167,16.8154
1279783053167,16.8186
1279783113167,16.8276
1279783173167,16.8307
1279783233167,16.8815
1279783293167,16.8682
1279783353167,16.8424
1279783413167,16.8538
1279783473167,16.9018
1279783533167,16.9092
1279783593167,16.9197
1279783653167,16.8728
1279783713167,16.8619
1279783773167,16.9670
1279783833167,16.9139
1279783893167,16.9100
1279783953167,16.9269
1279784013167,16.9018
1279784073167,16.8894
1279784133167,16.8560
1279784193167,16.8602
1279784253167,16.9409
1279784313167,16.9017
1279784373167,16.8616
1279784433167,16.9705
1279784493167,16.9101
1279784553167,16.9779
1279784613167,16.9607
1279784673167,16.9246
1279784733167,16.9467
1279784793167,16.9385
1279784853167,16.9217
1279784913167,16.9398
1279784973167,16.8977
1279785033167,16.9601
1279785093167,16.9200
1279785153167,16.8914
1279785213167,16.9244
1279785273167,16.9820
1279785333167,16.9220
1279785393167,16.9240
1279785453167,16.9678
1279785513167,16.9938
1279785573167,16.9571
1279785633175,16.9418
1279785693175,16.9089
1279785753175,16.9153
1279785813175,16.9169
1279785873175,16.9286
1279785933175,16.9165
1279785993175,16.8553
1279786053175,16.9224
1279786113175,16.9091
1279786173175,16.9020
1279786233175,16.8877
1279786293175,16.8691
1279786353175,16.9094
1279786413175,16.8825
1279786473175,16.8692
1279786533175,16.9078
1279786593175,16.9301
1279786653175,16.9466
1279786713175,16.8672
1279786773175,16.9683
1279786833175,16.8674
1279786893175,16.8700
1279786953175,16.8392
1279787013175,16.9107
1279787073175,16.8704
1279787133175,16.8969
1279787193175,16.8445
1279787253175,16.8771
1279787313175,16.9454
1279787373175,16.9296
1279787433175,16.8893
1279787493175,16.8581
1279787553175,16.9317
1279787613175,16.9570
1279787673175,16.9038
1279787733175,16.9366
1279787793175,16.9325
1279787853175,16.8793
1279787913175,16.9406
1279787973175,16.9270
1279788033175,16.9481
1279788093175,16.8858
1279788153175,16.9105
1279788213175,16.9153
1279788273175,16.9365
1279788333175,16.8989
1279788393175,16.8640
1279788453175,16.9051
1279788513175,16.8383
1279788573175,16.8868
1279788633175,16.8751
1279788693175,16.8812
1279788753175,16.8952
1279788813175,16.8921
1279788873175,16.8292
1279788933175,16.8805
1279788993175,16.8536
1279789053175,16.9055
1279789113175,16.9320
1279789173175,16.9142
1279789233183,16.9287
1279789293183,16.9327
1279789353183,16.9560
1279789413183,16.9356
1279789473183,16.8850
1279789533183,16.9502
1279789593183,16.9406
1279789653183,16.9489
1279789713183,16.9121
1279789773183,16.8804
1279789833183,16.9670
1279789893183,16.9276
1279789953183,16.9368
1279790013183,16.8972
1279790073183,17.0124
1279790133183,16.9248
1279790193183,16.9376
1279790253183,16.9117
1279790313183,16.9182
1279790373183,16.8568
1279790433183,16.8650
1279790493183,16.9460
1279790553183,16.9103
1279790613183,16.8794
1279790673183,16.9346
1279790733183,16.8678
1279790793183,16.8372
1279790853183,16.8788
1279790913183,16.9278
1279790973183,16.9199
1279791033183,16.8900
1279791093183,16.8333
1279791153183,16.8615
1279791213183,16.9064
1279791273183,16.9045
1279791333183,16.9279
1279791393183,16.9401
1279791453183,16.8939
1279791513183,16.9229
1279791573183,16.8556
1279791633183,16.9604
1279791693183,16.8998
1279791753183,16.9269
1279791813183,16.8852
1279791873183,16.8333
1279791933183,16.9122
1279791993183,16.8582
1279792053183,16.8814
1279792113183,16.9635
1279792173183,16.9435
1279792233183,16.9313
1279792293183,16.9352
1279792353183,16.9390
1279792413183,16.9069
1279792473183,16.9144
1279792533183,16.8694
1279792593183,16.9073
1279792653183,16.8399
1279792713183,16.9170
1279792773183,16.8578
1279792833192,16.9511
1279792893192,16.9505
1279792953192,16.8334
1279793013192,16.8906
1279793073192,16.8630
1279793133192,16.9456
1279793193192,16.8587
1279793253192,16.8813
1279793313192,16.9636
1279793373192,16.8749
1279793433192,16.9084
1279793493192,16.8498
1279793553192,16.9228
1279793613192,16.8908
1279793673192,16.9021
1279793733192,16.8759
1279793793192,16.8866
1279793853192,16.9168
1279793913192,16.8869
1279793973192,16.8165
1279794033192,16.8372
1279794093192,16.8615
1279794153192,16.7891
1279794213192,16.7695
1279794273192,16.9121
1279794333192,16.8679
1279794393192,16.8684
1279794453192,16.8522
1279794513192,16.8307
1279794573192,16.9162
1279794633192,16.9260
1279794693192,16.8902
1279794753192,16.8198
1279794813192,16.9300
1279794873192,16.8425
1279794933192,16.8339
1279794993192,16.8474
1279795053192,16.8637
1279795113192,16.8416
1279795173192,16.8920
1279795233192,16.8799
1279795293192,16.9104
1279795353192,16.8738
1279795413192,16.8972
1279795473192,16.8696
1279795533192,16.8511
1279795593192,16.8520
1279795653192,16.8832
1279795713192,16.8537
1279795773192,16.8620
1279795833192,16.8606
1279795893192,16.8584
1279795953192,16.8841
1279796013192,16.8553
1279796073192,16.7960
1279796133192,16.8009
1279796193192,16.8616
1279796253192,16.8765
1279796313192,16.8725
1279796373192,16.8990
1279796433200,16.8807
1279796493200,16.8364
1279796553200,16.8913
1279796613200,16.8763
1279796673200,16.8223
1279796733200,16.8015
1279796793200,16.8303
1279796853200,16.8625
1279796913200,16.8017
1279796973200,16.9021
1279797033200,16.8872
1279797093200,16.8533
1279797153200,16.8311
1279797213200,16.8065
1279797273200,16.8031
1279797333200,16.7753
1279797393200,16.7958
1279797453200,16.8032
1279797513200,16.8525
1279797573200,16.8303
1279797633200,16.9015
1279797693200,16.8970
1279797753200,16.8822
1279797813200,16.8743
1279797873200,16.9008
1279797933200,16.8607
1279797993200,16.9544
1279798053200,16.9363
1279798113200,16.8864
1279798173200,16.9455
1279798233200,16.8746
1279798293200,16.9097
1279798353200,16.9331
1279798413200,16.8677
1279798473200,16.9187
1279798533200,16.9067
1279798593200,16.9546
1279798653200,17.0099
1279798713200,16.9360
1279798773200,16.9141
1279798833200,16.8527
1279798893200,16.9025
1279798953200,16.8390
1279799013200,16.9462
1279799073200,16.9227
1279799133200,16.9350
1279799193200,16.9538
1279799253200,16.9368
1279799313200,16.9133
1279799373200,16.9207
1279799433200,16.9903
1279799493200,16.9083
1279799553200,16.8811
1279799613200,16.8833
1279799673200,16.9537
1279799733200,16.9983
1279799793200,16.8785
1279799853200,17.0210
1279799913200,16.9372
1279799973200,16.9190
1279800033208,16.9348
1279800093208,16.8948
1279800153208,16.9091
1279800213208,16.9649
1279800273208,16.9398
1279800333208,16.9156
1279800393208,16.8703
1279800453208,16.9029
1279800513208,16.9204
1279800573208,16.8608
1279800633208,16.9147
1279800693208,16.9717
1279800753208,16.9108
1279800813208,16.9623
1279800873208,16.8517
1279800933208,16.9831
1279800993208,16.9944
1279801053208,16.9815
1279801113208,17.0020
1279801173208,16.9215
1279801233208,16.9576
1279801293208,16.9045
1279801353208,16.9239
1279801413208,16.9359
1279801473208,16.9394
1279801533208,16.9304
1279801593208,16.9154
1279801653208,16.9360
1279801713208,16.9287
1279801773208,16.9993
1279801833208,16.9490
1279801893208,16.9558
1279801953208,16.9314
1279802013208,16.9228
1279802073208,17.0049
1279802133208,16.9005
1279802193208,16.9547
1279802253208,16.9460
1279802313208,16.9282
1279802373208,16.8933
1279802433208,16.8970
1279802493208,16.8721
1279802553208,16.9058
1279802613208,16.9031
1279802673208,16.9307
1279802733208,16.8622
1279802793208,16.8628
1279802853208,16.9681
1279802913208,16.9251
1279802973208,16.8728
1279803033208,16.9441
1279803093208,16.8997
1279803153208,16.8564
1279803213208,16.9159
1279803273208,16.8639
1279803333208,16.8309
1279803393208,16.8568
1279803453208,16.8794
1279803513208,16.9459
1279803573208,16.8741
1279803633217,16.9372
1279803693217,16.9276
1279803753217,16.8927
1279803813217,16.9989
1279803873217,16.8913
1279803933217,16.8894
1279803993217,16.9070
1279804053217,16.9256
1279804113217,16.8793
1279804173217,16.8866
1279804233217,16.9006
1279804293217,16.8422
1279804353217,16.8714
1279804413217,16.8844
1279804473217,16.9044
1279804533217,16.9441
1279804593217,16.9265
1279804653217,16.8191
1279804713217,16.8860
1279804773217,16.8821
1279804833217,16.9660
1279804893217,16.8569
1279804953217,16.9376
1279805013217,16.9159
1279805073217,16.8786
1279805133217,16.8985
1279805193217,16.8436
1279805253217,16.9066
1279805313217,16.9010
1279805373217,16.9268
1279805433217,16.8417
1279805493217,16.8657
1279805553217,16.8986
1279805613217,16.9230
1279805673217,16.9055
1279805733217,16.8969
1279805793217,16.8556
1279805853217,16.8674
1279805913217,16.8491
1279805973217,16.8929
1279806033217,16.8953
1279806093217,16.9212
1279806153217,16.9200
1279806213217,16.9206
1279806273217,16.9288
1279806333217,16.9361
1279806393217,16.9184
1279806453217,16.9460
1279806513217,16.8909
1279806573217,16.9295
1279806633217,16.9302
1279806693217,16.9275
1279806753217,16.9284
1279806813217,16.9680
1279806873217,16.9136
1279806933217,16.9324
1279806993217,16.9475
1279807053217,16.9256
1279807113217,16.8556
1279807173217,16.9553
1279807233225,16.9755
1279807293225,16.9695
1279807353225,16.9260
1279807413225,16.9011
1279807473225,16.9739
1279807533225,16.9520
1279807593225,16.9914
1279807653225,16.9590
1279807713225,16.9564
1279807773225,16.9840
1279807833225,16.8978
1279807893225,16.8919
1279807953225,16.9172
1279808013225,16.9069
1279808073225,16.9475
1279808133225,16.9255
1279808193225,16.9378
1279808253225,16.9698
1279808313225,16.9526
1279808373225,16.9289
1279808433225,17.0134
1279808493225,16.9597
1279808553225,16.9713
1279808613225,16.9800
1279808673225,16.9872
1279808733225,16.9779
1279808793225,16.9918
1279808853225,16.9574
1279808913225,16.9787
1279808973225,16.9620
1279809033225,16.9678
1279809093225,16.8918
1279809153225,16.8906
1279809213225,16.9139
1279809273225,16.9096
1279809333225,16.8562
1279809393225,16.9114
1279809453225,16.8692
1279809513225,16.8321
1279809573225,16.9598
1279809633225,16.9876
1279809693225,16.9445
1279809753225,16.9675
1279809813225,16.9019
1279809873225,16.9356
1279809933225,16.8759
1279809993225,16.9880
1279810053225,16.9668
1279810113225,16.9269
1279810173225,16.9065
1279810233225,16.9136
1279810293225,16.9461
1279810353225,16.9489
1279810413225,16.8590
1279810473225,16.9574
1279810533225,16.9390
1279810593225,16.9768
1279810653225,16.9161
1279810713225,17.0006
1279810773225,16.9450
1279810833234,16.9249
1279810893234,16.9582
1279810953234,16.9627
1279811013234,16.9435
1279811073234,16.9573
1279811133234,16.9428
1279811193234,16.9841
1279811253234,16.9886
1279811313234,16.9769
1279811373234,16.9293
1279811433234,16.9512
1279811493234,16.9297
1279811553234,16.9901
1279811613234,16.9830
1279811673234,17.0277
1279811733234,16.9849
1279811793234,16.9955
1279811853234,16.9668
1279811913234,17.0150
1279811973234,16.9351
1279812033234,16.9845
1279812093234,16.9815
1279812153234,16.9152
1279812213234,17.0223
1279812273234,17.0187
1279812333234,16.9666
1279812393234,16.9503
1279812453234,16.9468
1279812513234,16.8897
1279812573234,17.0057
1279812633234,16.9714
1279812693234,16.9233
1279812753234,16.9232
1279812813234,16.9922
1279812873234,16.9991
1279812933234,17.0011
1279812993234,16.9496
1279813053234,16.9930
1279813113234,16.9751
1279813173234,17.0119
1279813233234,16.9768
1279813293234,16.9687
1279813353234,17.0398
1279813413234,16.9813
1279813473234,16.9714
1279813533234,16.9167
1279813593234,16.9692
1279813653234,16.9201
1279813713234,16.9415
1279813773234,16.9989
1279813833234,16.9548
1279813893234,16.9522
1279813953234,16.9953
1279814013234,16.9218
1279814073234,16.9226
1279814133234,16.9155
1279814193234,16.9884
1279814253234,16.9746
1279814313234,17.0056
1279814373234,16.8856
1279814433243,16.9416
1279814493243,16.9550
1279814553243,16.9923
1279814613243,16.9823
1279814673243,16.9160
1279814733243,16.9491
1279814793243,16.9190
1279814853243,16.9282
1279814913243,16.9407
1279814973243,16.9342
1279815033243,16.9588
1279815093243,16.9701
1279815153243,16.9063
1279815213243,16.9103
1279815273243,16.8809
1279815333243,16.9178
1279815393243,16.9569
1279815453243,16.9056
1279815513243,16.8789
1279815573243,16.9228
1279815633243,16.9665
1279815693243,16.9606
1279815753243,16.9391
1279815813243,16.9670
1279815873243,16.8891
1279815933243,16.9382
1279815993243,16.9623
1279816053243,16.9658
1279816113243,16.9702
1279816173243,16.9291
1279816233243,16.9547
1279816293243,16.9257
1279816353243,16.9585
1279816413243,16.9335
1279816473243,16.8989
1279816533243,16.9323
1279816593243,16.9336
1279816653243,16.9623
1279816713243,16.9471
1279816773243,16.9396
1279816833243,16.9542
1279816893243,16.9448
1279816953243,16.9736
1279817013243,16.9668
1279817073243,16.9248
1279817133243,17.0195
1279817193243,17.0080
1279817253243,17.0522
1279817313243,16.9766
1279817373243,16.9716
1279817433243,17.0161
1279817493243,17.0105
1279817553243,16.9949
1279817613243,16.8932
1279817673243,16.8888
1279817733243,16.9549
1279817793243,16.9674
1279817853243,16.9435
1279817913243,16.8505
1279817973243,16.9026
1279818033253,16.8812
1279818093253,16.8817
1279818153253,16.9529
1279818213253,16.9690
1279818273253,16.8693
1279818333253,16.9435
1279818393253,17.0028
1279818453253,16.9274
1279818513253,16.9951
1279818573253,16.9787
1279818633253,16.9758
1279818693253,17.0114
1279818753253,16.9188
1279818813253,16.9459
1279818873253,16.9842
1279818933253,16.9877
1279818993253,16.9887
1279819053253,16.9724
1279819113253,17.0332
1279819173253,17.0375
1279819233253,17.0235
1279819293253,16.9939
1279819353253,16.9999
1279819413253,16.9883
1279819473253,16.9892
1279819533253,17.0050
1279819593253,16.9300
1279819653253,16.9904
1279819713253,16.9731
1279819773253,16.9967
1279819833253,16.9726
1279819893253,16.9370
1279819953253,16.9327
1279820013253,16.9704
1279820073253,17.0054
1279820133253,16.9403
1279820193253,17.0018
1279820253253,17.0260
1279820313253,17.0073
1279820373253,17.0309
1279820433253,16.9397
1279820493253,16.9479
1279820553253,16.9995
1279820613253,17.0188
1279820673253,16.9734
1279820733253,16.9356
1279820793253,17.0000
1279820853253,16.9782
1279820913253,16.9123
1279820973253,16.9675
1279821033253,17.0027
1279821093253,16.9619
1279821153253,17.0138
1279821213253,16.9744
1279821273253,17.0294
1279821333253,16.9407
1279821393253,17.0024
1279821453253,16.9615
1279821513253,16.9612
1279821573253,16.9585
1279821633262,16.9265
1279821693262,16.8912
1279821753262,16.8957
1279821813262,16.9812
1279821873262,16.9565
1279821933262,16.9422
1279821993262,16.9723
1279822053262,16.9221
1279822113262,16.9959
1279822173262,16.9370